Location: Unspecified
(0.0000°N, 0.0000°E)
Time: 07:45:36
(UTC+00:00)

Transit 4A - Pass Details

Date: 11 October 2023
Orbit: 864 x 979 km, 66.8° (Epoch: 05 December)

Event Time Altitude Azimuth Distance (km) Brightness Sun altitude
Rises 08:19:18 0° 234° (SW) 3,572 10.6 37.8°
Reaches altitude 10° 08:22:50 10° 254° (WSW) 2,649 10.0 38.7°
Maximum altitude 08:26:30 16° 291° (WNW) 2,245 9.6 39.6°
Drops below altitude 10° 08:30:13 10° 328° (NNW) 2,685 10.1 40.5°
Sets 08:33:52 0° 348° (NNW) 3,644 10.8 41.4°
